Tracking 29892 objects as of 21-Nov-2024
HD Live streaming from Space Station
objects crossing your sky now

STARLINK-31940

Track STARLINK-31940 now!
10-day predictions
STARLINK-31940 is classified as:


NORAD ID: 59873
Int'l Code: 2024-098R
Perigee: 450.0 km
Apogee: 452.4 km
Inclination: 43.0 °
Period: 93.5 minutes
Semi major axis: 6822 km
RCS: Unknown
Launch date: May 24, 2024
Source: United States (US)
Launch site: AIR FORCE EASTERN TEST RANGE (AFETR)
Your satellite tracking list
Your tracking list is empty




NASA's NSSDC Master Catalog

Two Line Element Set (TLE):
1 59873U 24098R   24325.74584296  .00001716  00000-0  48344-4 0  9998
2 59873  43.0033  92.6656 0001806 274.1592  85.9058 15.40699282 29154
Source of the keplerian elements: AFSPC